Station 46229 - UMPQUA OFFSHORE, OR (139) Image indicating link to RSS feed of recent meteorological observations for station 46229


Conditions at 46229 as of
(5:26 am PDT)
1226 GMT on 05/20/2024:
     

Click on the graph icon in the table below to see a time series plot of the last five days of that observation.

5-day plot - Wave Height Wave Height (WVHT): 5.6 ft
5-day plot - Dominant Wave Period Dominant Wave Period (DPD): 8 sec
5-day plot - Average Wave Period Average Period (APD): 6.7 sec
5-day plot - Mean Wave Direction Mean Wave Direction (MWD): NW ( 316 deg true )
5-day plot - Water Temperature Water Temperature (WTMP): 51.6 °F
Previous observations
TIME
(PDT)
5-day plot - Wind Direction
WDIR
 
5-day plot - Wind Speed
WSPD
kts
5-day plot - Wind Gust
GST
kts
5-day plot - Wave Height
WVHT
ft
5-day plot - Dominant Wave Period
DPD
sec
5-day plot - Average Wave Period
APD
sec
5-day plot - Mean Wave Direction
MWD
 
5-day plot - Atmospheric Pressure
PRES
in
5-day plot - Pressure Tendency
PTDY
in
5-day plot - Air Temperature
ATMP
°F
5-day plot - Water Temperature
WTMP
°F
5-day plot - Dew Point
DEWP
°F
5-day plot - Salinity
SAL
psu
5-day plot - Visibility
VIS
nmi
5-day plot - Tide (above MLLW)
TIDE
ft
2024-05-20 04:56 am--- 5.9 186.6 SW--- 51.6----
2024-05-20 04:26 am--- 6.2 86.5 NW--- 51.6----
2024-05-20 03:56 am--- 6.2 186.7 SW--- 51.6----
2024-05-20 03:26 am--- 6.2 86.4 NW--- 51.6----
2024-05-20 02:56 am--- 6.2 86.3 NW--- 51.6----
2024-05-20 02:26 am--- 6.2 186.1 SW--- 51.6----
2024-05-20 01:56 am--- 6.6 76.2 NW--- 51.6----
2024-05-20 01:26 am--- 6.2 186.0 SW--- 51.6----
2024-05-20 12:56 am--- 5.9 86.0 NW--- 51.6----
2024-05-20 12:26 am--- 5.9 86.0 NW--- 51.6----
2024-05-19 11:56 pm--- 6.2 186.3 SW--- 51.6----
2024-05-19 11:26 pm--- 6.2 186.1 SW--- 51.6----
2024-05-19 10:56 pm--- 6.2 76.1 NW--- 51.6----
2024-05-19 10:26 pm--- 6.2 186.1 SW--- 51.6----
2024-05-19 09:56 pm--- 6.2 185.9 SW--- 51.6----
2024-05-19 09:26 pm--- 6.2 186.3 SW--- 51.8----
2024-05-19 08:56 pm--- 5.9 186.0 SW--- 51.8----
2024-05-19 08:26 pm--- 5.9 186.2 SW--- 51.8----
2024-05-19 07:56 pm--- 5.2 186.1 SW--- 52.0----
2024-05-19 07:26 pm--- 5.6 86.3 NW--- 52.0----
2024-05-19 06:56 pm--- 4.9 186.2SSW--- 52.2----
2024-05-19 06:26 pm--- 4.9 186.1SSW--- 52.2----
2024-05-19 05:56 pm--- 4.6 185.9 SW--- 52.2----
2024-05-19 05:26 pm--- 4.9 186.4SSW--- 52.2----
2024-05-19 04:56 pm--- 4.6 186.3 SW--- 52.3----
2024-05-19 04:26 pm--- 4.9 186.7 SW--- 52.2----
2024-05-19 03:56 pm--- 4.9 186.7 SW--- 52.3----
2024-05-19 03:26 pm--- 4.6 186.3 SW--- 52.3----
2024-05-19 02:56 pm--- 4.9 186.7 SW--- 52.3----
2024-05-19 02:26 pm--- 4.6 186.6 SW--- 52.3----
2024-05-19 01:56 pm--- 4.9 186.8 SW--- 52.2----
2024-05-19 01:26 pm--- 4.6 186.5 SW--- 52.2----
2024-05-19 12:56 pm--- 4.6 186.8 SW--- 52.2----
2024-05-19 12:26 pm--- 4.6 186.4 SW--- 52.2----
2024-05-19 11:56 am--- 4.9 186.8 SW--- 52.0----
2024-05-19 11:26 am--- 4.9 206.7 SW--- 52.0----
2024-05-19 10:56 am--- 4.9 76.6 NW--- 51.8----
2024-05-19 10:26 am--- 5.2 187.3 SW--- 51.6----
2024-05-19 09:56 am--- 4.9 206.8 SW--- 51.6----
2024-05-19 09:26 am--- 4.9 206.6 SW--- 51.6----
2024-05-19 08:56 am--- 4.9 206.8 SW--- 51.4----
2024-05-19 08:26 am--- 4.9 76.6 NW--- 51.4----
2024-05-19 07:56 am--- 4.9 206.8 SW--- 51.3----
2024-05-19 07:26 am--- 4.9 206.6 SW--- 51.3----
2024-05-19 06:56 am--- 5.2 176.7 SW--- 51.3----
2024-05-19 06:26 am--- 4.9 207.0 SW--- 51.1----
2024-05-19 05:56 am--- 5.2 206.6 SW--- 51.1----
2024-05-19 05:26 am--- 5.2 206.6 SW--- 51.1----
2024-05-19 04:56 am--- 5.2 86.5 NW--- 51.3----

Detailed Wave Summary
for 46229 as of (5:26 am PDT)
1226 GMT on 05/20/2024:

These wave data are displayed in rounded times.

     

Click on the graph icon in the table below to see a time series plot of the last five days of that observation.

5-day plot - Significant Wave Height Significant Wave Height (WVHT): 5.6 ft
5-day plot - Swell Height Swell Height (SwH): 2.6 ft
5-day plot - Swell Period Swell Period (SwP): 16.7 sec
5-day plot - Swell Direction Swell Direction (SwD): SW
5-day plot - Wind Wave Height Wind Wave Height (WWH): 5.2 ft
5-day plot - Wind Wave Period Wind Wave Period (WWP): 7.7 sec
5-day plot - Wind Wave Direction Wind Wave Direction (WWD): NW
5-day plot - Wave Steepness Wave Steepness (STEEPNESS): STEEP
5-day plot - Average Wave Period Average Wave Period (APD): 6.7 sec
Previous observations
TIME
(PDT)
5-day plot - Wave Height
WVHT
ft
5-day plot - Swell Height
SwH
ft
5-day plot - Swell Period
SwP
sec
5-day plot - Swell Direction
SwD
 
5-day plot - Wind Wave Height
WWH
ft
5-day plot - Wind Wave Period
WWP
sec
5-day plot - Wind Wave Direction
WWD
 
5-day plot - Wave Steepness
STEEPNESS
 
5-day plot - Average Wave Period
APD
sec
2024-05-20 04:56 am 5.9 2.6 18.2 SW 5.2 8.3 NW AVERAGE 6.6
2024-05-20 04:26 am 6.2 3.0 18.2 SW 5.6 7.7 NW STEEP 6.5
2024-05-20 03:56 am 6.2 3.0 18.2 SW 5.6 7.7 NW AVERAGE 6.7
2024-05-20 03:26 am 6.2 2.6 18.2 SW 5.9 7.7 NW STEEP 6.4
2024-05-20 02:56 am 6.2 3.0 18.2 SW 5.9 7.7 NW STEEP 6.3
2024-05-20 02:26 am 6.2 2.6 18.2 SW 5.6 7.7 NW AVERAGE 6.1
2024-05-20 01:56 am 6.6 2.6 18.2 SW 5.9 7.1 NW STEEP 6.2
2024-05-20 01:26 am 6.2 2.6 18.2 SW 5.6 8.3 WNW AVERAGE 6.0
2024-05-20 12:56 am 5.9 2.3 18.2 SW 5.6 7.7 NW STEEP 6.0
2024-05-20 12:26 am 5.9 2.3 18.2 SW 5.6 7.7 NW STEEP 6.0
2024-05-19 11:56 pm 6.2 3.0 18.2 SW 5.6 7.1 NW AVERAGE 6.3
2024-05-19 11:26 pm 6.2 2.6 18.2 SW 5.9 7.7 NW AVERAGE 6.1
2024-05-19 10:56 pm 6.2 2.6 16.7 SW 5.9 7.1 NW STEEP 6.1
2024-05-19 10:26 pm 6.2 2.6 18.2 SW 5.9 7.1 NW AVERAGE 6.1
2024-05-19 09:56 pm 6.2 2.6 18.2 SW 5.6 7.1 NW AVERAGE 5.9
2024-05-19 09:26 pm 6.2 3.0 18.2 SW 5.6 7.1 NW AVERAGE 6.3
2024-05-19 08:56 pm 5.9 2.6 18.2 SW 5.2 7.1 NW AVERAGE 6.0
2024-05-19 08:26 pm 5.9 2.6 18.2 SW 5.2 7.7 NW AVERAGE 6.2
2024-05-19 07:56 pm 5.2 2.6 18.2 SW 4.6 7.7 NW AVERAGE 6.1
2024-05-19 07:26 pm 5.6 2.6 18.2 SW 4.9 7.7 NW STEEP 6.3
2024-05-19 06:56 pm 4.9 2.6 18.2SSW 4.3 7.7 NW AVERAGE 6.2
2024-05-19 06:26 pm 4.9 2.6 18.2SSW 4.3 7.7 NW AVERAGE 6.1
2024-05-19 05:56 pm 4.6 2.3 18.2 SW 4.3 7.7 WNW AVERAGE 5.9
2024-05-19 05:26 pm 4.9 2.6 18.2SSW 4.3 7.1 NW AVERAGE 6.4
2024-05-19 04:56 pm 4.6 2.3 18.2 SW 4.3 7.7 NW AVERAGE 6.3
2024-05-19 04:26 pm 4.9 3.0 18.2 SW 4.3 7.7 NW AVERAGE 6.7
2024-05-19 03:56 pm 4.9 3.0 18.2 SW 3.9 7.1 NW AVERAGE 6.7
2024-05-19 03:26 pm 4.6 2.6 18.2 SW 3.9 7.7 NW AVERAGE 6.3
2024-05-19 02:56 pm 4.9 2.6 18.2 SW 3.9 7.1 NW AVERAGE 6.7
2024-05-19 02:26 pm 4.6 2.3 18.2 SW 4.3 6.7 NW AVERAGE 6.6
2024-05-19 01:56 pm 4.9 2.6 18.2 SW 3.9 6.7 NW AVERAGE 6.8
2024-05-19 01:26 pm 4.6 2.3 18.2 SW 3.9 7.1 NW AVERAGE 6.5
2024-05-19 12:56 pm 4.6 2.6 18.2 SW 3.9 7.7 NW AVERAGE 6.8
2024-05-19 12:26 pm 4.6 2.3 18.2 SW 3.9 8.3 NW AVERAGE 6.4
2024-05-19 11:56 am 4.9 2.6 18.2 SW 4.3 7.1 NW AVERAGE 6.8
2024-05-19 11:26 am 4.9 2.3 20.0 SW 4.3 7.1 NW AVERAGE 6.7
2024-05-19 10:56 am 4.9 2.3 20.0 SW 4.3 7.1 NW STEEP 6.6
2024-05-19 10:26 am 5.2 3.0 18.2 SW 4.3 7.1 NW AVERAGE 7.3
2024-05-19 09:56 am 4.9 2.6 20.0 SW 4.3 8.3 NW AVERAGE 6.8
2024-05-19 09:26 am 4.9 2.3 20.0 SW 4.3 7.7 NW AVERAGE 6.6
2024-05-19 08:56 am 4.9 2.3 20.0 SW 4.6 6.7 NW AVERAGE 6.8
2024-05-19 08:26 am 4.9 2.0 20.0 SW 4.6 7.1 NW STEEP 6.6
2024-05-19 07:56 am 4.9 2.3 20.0 SW 4.3 7.7 NW AVERAGE 6.8
2024-05-19 07:26 am 4.6 2.3 20.0 SW 4.3 6.7 NNW AVERAGE 6.6
2024-05-19 06:56 am 5.2 2.6 16.7 SW 4.6 7.7 NW AVERAGE 6.7
2024-05-19 06:26 am 4.9 2.6 20.0 SW 4.3 7.7 NNW AVERAGE 7.0
2024-05-19 05:56 am 5.2 2.3 20.0 SW 4.6 6.7 NW AVERAGE 6.6
2024-05-19 05:26 am 5.2 2.3 20.0 SW 4.6 6.7 NW AVERAGE 6.6
2024-05-19 04:56 am 5.2 2.0 20.0 SW 4.9 7.7 NW AVERAGE 6.5

Plot of wave energy versus frequency (and period)